Regional Weather Roundup
Issued by NWS Pendleton, OR

Home | Current Version | Previous Version | Text Only | Print | Product List | Glossary On
Versions: 1 2 3 4 5 6 7 8 9 10 11 12 13 14 15 16 17 18 19 20 21 22 23 24 25 26 27 28 29 30 31 32 33 34 35 36 37 38 39 40 41 42 43 44 45 46 47 48 49 50
000
ASUS46 KPDT 221010
RWRPDT
PENDLETON REGIONAL WEATHER ROUNDUP
NATIONAL WEATHER SERVICE PENDLETON OREGON
300 AM PDT WED OCT 22 2014

NOTE: FAIR INDICATES FEW OR NO CLOUDS BELOW 12,000 FEET WITH NO
SIGNIFICANT WEATHER AND/OR OBSTRUCTIONS TO VISIBILITY.

# INDICATES UNOFFICIAL STATION AND DATA

WAZ520-221110-
EAST SLOPES OF WASHINGTON CASCADES

CITY            SKY/WX      TMP DP  RH  WIND    PRES   REMARKS
#BUMPING DAM    N/A         42  N/A N/A S1      N/A
#CLE ELUM HS    N/A         46  41  83  S2      29.80F
#CLE ELUM 2NW   N/A         45  42  89  NE2     N/A
#CLE ELUM LAKE  N/A         43  41  93  CALM    29.78F
#CLIFFDEL 2NW   N/A         43  42  96  S1      N/A
#EASTON DOT     N/A         44  39  82  N1      N/A
#GLENWOOD       N/A         45  44  96  CALM    29.86F
#MANASTASH CYN  N/A         41  37  86  CALM    29.82F
#NELSON         N/A         42  41  96  CALM    29.85F
#NELSON 3SW     N/A         41  40  96  CALM    30.02F
#NILE           N/A         49  43  80  NE2     29.11F
#PEOH POINT     N/A         40  38  92  SE9     N/A
#RONALD 2NW     N/A         46  41  83  E2      29.70F
#SNOWDEN        N/A         47  42  83  CALM    N/A
#SOUTH BLEWITT  N/A         41  39  93  CALM    N/A
#TEANAWAY 4NE   N/A         50  44  80  SE3     N/A
#TROUT LAKE HS  N/A         48  48  100 CALM    N/A
#TROUT LAKE 1NE N/A         45  44  96  CALM    29.86F
$$

WAZ521-221110-
SIMCOE HIGHLANDS

CITY            SKY/WX      TMP DP  RH  WIND    PRES   REMARKS
#BICKLETON HS   N/A         44  38  79  SW3     30.00S
#SATUS PASS DOT N/A         44  40  86  CALM    N/A
#CENTERVILLE 4W N/A         48  44  86  E2      29.62F
#CENTERVILLE 1SWN/A         44  41  89  CALM    29.83F
#GOLDENDALE     N/A         47  44  89  E2      N/A
#GOLDENDALE 1NE N/A         47  43  86  NW6     N/A
#GOLDENDALE 1S  N/A         46  43  89  NE2     29.85F
#GOLDENDALE 5WNWN/A         49  44  83  E3      29.84F
#GOODNOE HILLS  N/A         51  45  80  NE3     29.81F
#LYLE 6NE       N/A         47  44  89  N2      29.82F
$$

WAZ026-221110-
KITTITAS VALLEY

CITY            SKY/WX      TMP DP  RH  WIND    PRES   REMARKS
ELLENSBURG AP   LGT RAIN    51  43  74  E7      29.85F
#ELLENSBURG CWU N/A         48  43  83  E3      29.82F
#ELLENSBURG 3NE N/A         48  44  86  CALM    29.87F
#ELLENSBURG     N/A         48  48  100 E1      N/A
#KITTITAS 3S    N/A         41  40  96  CALM    29.85F
#THORP 6N       N/A         47  42  83  E8      29.84F
$$

WAZ027-221110-
YAKIMA VALLEY

CITY            SKY/WX      TMP DP  RH  WIND    PRES   REMARKS
SUNNYSIDE AP    CLOUDY      48  45  89  CALM    29.87F
YAKIMA AIRPORT  MOCLDY      47  42  83  CALM    29.86F
#COWICHE 1N     N/A         46  40  79  CALM    30.01F
#DONALD 2NE     N/A         52  43  71  NW1     30.18F
#GRANDVIEW      N/A         51  43  74  CALM    29.88F
#MABTON         N/A         52  45  77  N1      29.87F
#MOXEE 2E       N/A         55  41  59  E3      29.82F
#NACHES 2SW     N/A         46  44  93  CALM    29.86F
#TERRACE HTS    N/A         50  44  80  CALM    29.83F
#TOPPENISH      N/A         49  44  83  SE3     29.78F
#WAPATO 4NE     N/A         52  43  71  N1      30.18F
#WEST VALLEY    N/A         45  42  89  CALM    29.85F
#W YAKIMA       N/A         48  43  83  CALM    29.87F
#WHITE SWAN 5E  N/A         44  41  89  CALM    29.86F
#WILEY CITY 3W  N/A         45  32  60  CALM    29.96S
$$

WAZ028-221110-
LOWER COLUMBIA BASIN...WASHINGTON

CITY            SKY/WX      TMP DP  RH  WIND    PRES   REMARKS
PASCO           MOCLDY      48  45  89  CALM    29.90S
PROSSER AWOS    N/A         54  43  66  E2      29.90F
RICHLAND AWOS   CLOUDY      48  45  89  CALM    29.90S
#BASIN CITY 5SW N/A         49  44  83  E1      29.89F
#BENTON CITY    N/A         49  43  80  CALM    29.80S
#CONNELL 5N     N/A         46  41  83  E3      29.90F
#CONNELL 5NW    N/A         45  41  86  E1      29.86F
#ELTOPIA        N/A         49  44  83  CALM    29.86S
#ELTOPIA 6NW    N/A         48  43  83  S1      28.86F
#KENNEWICK 3S   N/A         50  44  80  SE1     29.89F
#PASCO-BROADMOORN/A         49  45  86  NE1     29.79F
#PATERSON       N/A         49  44  83  CALM    29.88S
#PROSSER DOT    N/A         55  42  61  E5      N/A
#PROSSER        N/A         52  41  66  CALM    29.87F
#SAGEMOOR 2W    N/A         50  43  77  CALM    29.74F
#TOUCHET 2S     N/A         39  38  96  CALM    29.89F
#WEST PASCO     N/A         50  43  77  CALM    29.89S
$$

WAZ029-221110-
FOOTHILLS OF THE BLUES...WASHINGTON

CITY            SKY/WX      TMP DP  RH  WIND    PRES   REMARKS
WALLA WALLA AP  MOCLDY      54  37  52  NW3     29.91S HAZE
#LOWDEN 2SE     N/A         43  39  86  E1      29.87F
#PLEASANT VIEW 1N/A         48  38  68  N1      29.95F
#PRESCOTT       N/A         42  39  89  CALM    29.90F
#SUDBURY        N/A         43  N/A N/A CALM    N/A
#WHITMAN COLLEGEN/A         56  39  53  E1      29.94F
#WAITSBURG 8N   N/A         53  27  36  S6      29.88F
#WALLA WALLA 5E N/A         61  37  41  CALM    N/A
#WALLA WALLA U  N/A         47  41  79  CALM    29.90F
#WHITMAN MISSIONN/A         43  40  89  CALM    29.91F
$$

WAZ030-221110-
BLUE MOUNTAINS...WASHINGTON

CITY            SKY/WX      TMP DP  RH  WIND    PRES   REMARKS
$$

ORZ009-041-WAZ024-221110-
COLUMBIA RIVER GORGE

CITY            SKY/WX      TMP DP  RH  WIND    PRES   REMARKS
HOOD RIVER AP   LGT RAIN    50  48  93  CALM    29.87F
THE DALLES AP   CLOUDY      51  48  89  CALM    29.87F
#ARLINGTON AIRPON/A         49  45  86  NE2     29.98S
#ARLINGTON HS   N/A         48  43  83  CALM    29.80F
#CELILO DOT     N/A         53  45  74  NE2     N/A
#LYLE           N/A         52  47  83  NE1     29.87F
#MARYHILL       N/A         52  46  80  W2      N/A
#MARYHILL 2W    N/A         53  48  83  CALM    N/A
#MOSIER 1S      N/A         49  46  89  CALM    N/A
#MURDOCK        N/A         52  49  89  E2      29.88F
#RUFUS DOT      N/A         51  45  80  N2      N/A

$$

ORZ510-221110-
NORTH CENTRAL OREGON

CITY            SKY/WX      TMP DP  RH  WIND    PRES   REMARKS
#CHENOWITH 1W   N/A         47  46  96  E12     N/A    WCI 42
#COW CYN RST AREN/A         50  38  63  S7      N/A
#DUFUR 9E       N/A         51  40  66  S22G29  29.88F
#GRASS VALLEY   N/A         46  42  86  S1      N/A
#GRASS VALLEY 1SN/A         46  40  79  CALM    29.88F
#KENT DOT       N/A         49  33  54  S12     N/A    WCI 44
#MAUPIN SCHOOL  N/A         47  43  86  CALM    28.77F
#MORO SCHOOL    N/A         48  45  89  CALM    29.89F
#SHANIKO 5WSW   N/A         48  31  51  S18     N/A    WCI 41
#SHANIKO 4NW    N/A         47  37  68  S21G30  29.89S WCI 39
#TYGH VALLEY 2NEN/A         46  43  89  CALM    29.87F
#WAPANITIA AIRPON/A         46  42  86  CALM    29.88F
#WASCO DOT      N/A         49  44  83  E5      N/A
#WASCO 5NE      N/A         48  43  83  CALM    29.88S
$$

ORZ511-221110-
CENTRAL OREGON

CITY            SKY/WX      TMP DP  RH  WIND    PRES   REMARKS
BEND AIRPORT    PTCLDY      50  37  61  S15     29.95F
MADRAS AIRPORT  MOCLDY      52  39  61  S14     29.92S
PRINEVILLE AP   CLOUDY      50  39  66  S10     29.95S
REDMOND AIRPORT CLOUDY      49  37  63  E5      29.93F
#BEND 6E        N/A         51  37  59  CALM    29.84F
#BEND 1SW       N/A         43  39  86  W1      N/A
#BEND-KIM LN    N/A         47  39  74  S3      29.91F
#CROOKED RVR RANN/A         52  40  63  SW1     29.90F
#CULVER         N/A         52  39  61  SE9     29.86F
#LAKE BILLY CHINN/A         51  23  33  E3      29.96F
#POWELL BUTTE 3EN/A         49  39  68  SE3     N/A
#POWELL BUTTE   N/A         50  38  63  SW14    29.57F
#PRINEVILLE 3N  N/A         49  40  71  NE5     29.91F
#WARM SPRINGS   N/A         46  42  86  CALM    29.87F


ORZ509-221110-
EAST SLOPES OF OREGON CASCADES

CITY            SKY/WX      TMP DP  RH  WIND    PRES   REMARKS
#BLUE BOX PASS  N/A         43  -7  11  S7      N/A
#CAMP SHERMAN   N/A         40  38  92  CALM    29.88F
#LA PINE DOT    N/A         42  35  76  S5      N/A
#LA PINE 4NW    N/A         43  36  76  CALM    30.03F
#LAVA BUTTE DOT N/A         43  36  76  SE6     N/A
#SISTERS AIRPOR N/A         40  40  100 N1      29.91S
#SISTERS ODOT   N/A         40  N/A N/A CALM    N/A
#SISTERS 3N     N/A         39  32  76  CALM    29.92F
#SUNRIVER       N/A         43  39  86  S1      29.85F
#SUNRIVER AP    N/A         42  37  82  SW3     29.94F
#SUTTLE LK DOT  N/A         39  39  100 S8      N/A
#TUMALO 3W      N/A         47  38  71  S10     29.80F
#WANOGA BUTTE D N/A         36  36  100 SW6     N/A

$$

ORZ044-221110-
LOWER COLUMBIA BASIN...OREGON

CITY            SKY/WX      TMP DP  RH  WIND    PRES   REMARKS
HERMISTON       CLOUDY      48  41  77  CALM    29.88F
#BOARDMAN SCHOOLN/A         65  45  48  W3      29.90F
#BOARDMAN 3W    N/A         46  44  93  CALM    29.62S
#BOARDMAN 8SW   N/A         47  43  86  CALM    29.88F
#ECHO 8SW       N/A         46  40  79  CALM    29.85F
#IONE SCHOOL    N/A         57  41  55  CALM    29.88S
#IRRIGON 4NW    N/A         44  41  89  S2      N/A
#UMATILLA SCHOOLN/A         46  46  100 CALM    29.92F
#UMATILLA       N/A         50  40  68  CALM    29.87F
$$

ORZ507-221110-
NORTHERN FOOTHILLS OF THE BLUES

CITY            SKY/WX      TMP DP  RH  WIND    PRES   REMARKS
PENDLETON AIRPT CLOUDY      45  37  73  N5      29.91S
#ADAMS 3WNW     N/A         48  38  68  CALM    29.91S
#ATHENA         N/A         55  37  51  S2      29.92F
#CAYUSE         N/A         58  38  47  S15G26  29.88F
#HELIX SCHOOL   N/A         43  38  82  CALM    29.91F
#HELIX 3N       N/A         48  37  65  SE10    29.89S
#HOLDMAN 5SE    N/A         47  40  76  CALM    29.92R
#HOLDMAN 6E     N/A         49  38  66  CALM    29.72S
#M-F FERNDALE   N/A         57  38  49  SE1     29.90F
#M-F GROVE ELEM N/A         56  34  43  CALM    29.88F
#M-FREEWATER 5SEN/A         55  40  57  E3      29.91F
#PENDLETON DNTN N/A         42  34  73  CALM    28.73S
#PDT AQUATIC CTRN/A         43  33  67  CALM    29.91S
#PDT SUNRIDGE   N/A         39  37  92  CALM    29.92F
#PENDLETON 7NW  N/A         48  39  71  SE6     27.37S
#PILOT ROCK     N/A         54  35  48  S7      29.91F
#TUTUILLA       N/A         56  38  51  S1      29.91S
#UMAPINE 2E     N/A         52  41  66  CALM    29.88S
#WESTON SCHOOL  N/A         56  30  37  SW6     29.88S

$$

ORZ508-221110-
SOUTHERN FOOTHILLS OF THE BLUES

CITY            SKY/WX      TMP DP  RH  WIND    PRES   REMARKS
LEXINGTON       PTCLDY      57  37  47  SE16    29.89F
#AJAX           N/A         53  33  46  S12     29.83F
#CONDON SCHOOL  N/A         49  40  71  CALM    29.88S
#CONDON 5W      N/A         48  36  63  S12     29.87F WCI 43
#FOSSIL SCHOOL  N/A         54  37  52  S6      29.90S
#HEPPNER EOC    N/A         56  38  51  SE3     29.84S
#HEPPNER 4NE    N/A         54  37  52  N2      29.89S
#LEXINGTON 2SE  N/A         58  38  47  S8      29.85S
#MIKKALO        N/A         50  39  66  W1      29.88S
#OLEX 4N        N/A         48  43  83  CALM    29.88S
#RUGGS 5NE      N/A         53  34  48  S9      30.04F
#RUGGS 2SW      N/A         52  36  54  SW10    29.91S

$$

ORZ502-503-221110-
BLUE MOUNTAINS

CITY            SKY/WX      TMP DP  RH  WIND    PRES   REMARKS
MEACHAM         MOCLDY      38  33  82  CALM    29.97S
#BATTLE MTN DOT N/A         39  36  89  S7      N/A
#HARDMAN 10S    N/A         41  34  76  SE1     30.01S
#HEPPNER 15SE   N/A         48  35  60  E6      29.84S
#LADD CYN SMT   N/A         39  30  70  SE6     N/A
#LADD CREEK ODOTN/A         36  32  85  SW3     N/A
#N POWDER DOT   N/A         27  28  100 SW6     N/A
#PIKES PEAK     N/A         52  32  46  S25G35  27.99S
#TROY SCHOOL    N/A         38  35  89  CALM    29.89S
#UKIAH          N/A         31  30  96  CALM    30.02F
#WESTON 4E      N/A         49  35  58  E9      29.88S
$$

ORZ505-221110-
JOHN DAY BASIN

CITY            SKY/WX      TMP DP  RH  WIND    PRES   REMARKS
JOHN DAY        MOCLDY      44  34  68  E8      30.01S
#JOHN DAY KJDY  N/A         39  34  82  CALM    30.16S
#DAYVILLE SCHOOLN/A         48  36  63  E3      29.97R
#MT. VERNON 5SE N/A         45  34  65  S8      29.96F
#WINLOCK        N/A         47  37  68  CALM    30.05R
$$

ORZ506-221110-
OCHOCO AND JOHN DAY HIGHLANDS

CITY            SKY/WX      TMP DP  RH  WIND    PRES   REMARKS
#BUCK CREEK DOT N/A         40  39  96  SE9     N/A
#HORSE RIDGE DO N/A         45  35  68  S13     N/A    WCI 39
#KEYES SMT DOT  N/A         45  34  65  SW2     N/A
#PAULINA SCHOOL N/A         38  34  85  N1      30.00R
#PINE MTN OBS   N/A         36  33  89  S22G30  N/A    WCI 25
#PRAIRIE CITY   N/A         31  27  85  CALM    30.19S
#SENECA         N/A         29  N/A N/A CALM    N/A
#SENECA 9NW     N/A         28  27  96  CALM    30.08R
$$

ORZ049-221110-
GRANDE RONDE VALLEY

CITY            SKY/WX      TMP DP  RH  WIND    PRES   REMARKS
LA GRANDE       PTCLDY      37  27  67  E5      30.00S
#COVE           N/A         34  32  92  N1      29.92S
#COVE SCHOOL    N/A         35  33  92  CALM    29.98S
#COVE 6NW       N/A         30  28  92  CALM    30.07R
#ELGIN 3N       N/A         30  26  85  CALM    29.74F
#ELGIN 1E       N/A         32  28  85  CALM    N/A
#IMBLER SCHOOL  N/A         63  35  35  SW3     29.84S
#ISLAND CITY 4N N/A         54  52  93  N1      29.78F
#LADD CYN DOT   N/A         47  34  60  S15     N/A    WCI 41
#UNION 1S       N/A         46  34  63  S6      29.92S
$$

ORZ050-221110-
WALLOWA COUNTY

CITY            SKY/WX      TMP DP  RH  WIND    PRES   REMARKS
#ENTERPRISE HS  N/A         34  31  89  W2      30.02F
#IMNAHA SCHOOL  N/A         40  36  85  CALM    29.99S
#IMNAHA 10S     N/A         38  35  89  W1      30.00F
#JOSEPH 3N      N/A         32  30  92  CALM    30.02F
#JOSEPH 3W      N/A         39  33  79  CALM    N/A
#LOSTINE        N/A         31  29  92  CALM    29.83S
#MT HOWARD 8000 N/A         33  26  75  S18G36  29.98S WCI 22
#PROMISE 1S     N/A         34  32  92  CALM    30.12F
#SHEEP RDG 7000 N/A         36  25  64  CALM    30.06F
#WALLOWA SCHOOL N/A         29  27  92  CALM    30.98R



$$



USA.gov is the U.S. government's official web portal to all federal, state and local government web resources and services.